[[{"header":{"parameterUnit":"m.s-1","parameterCategory":1,"la1":30.2991,"la2":30.254,"lo1":-89.0895,"lo2":-89.0444,"dy":0.0017,"dx":0.0017,"nx":28,"ny":28,"refTime":"2023-10-12T09:00:00:Z","depth":0,"parameterNumber":2,"parameterNumberName":"U-component_of_WINDS"},"data":[0,0,0,0,0,0,0,0,0,0,0,0,0,0,0,0,0,0,0,0,0,0,0,0,0,0,0,0,0,0,0,0,0,0,0,0,0,0,0,0,0,0,0,0,0,0,0,0,0,0,0,0,0,0,0,0,0,0,-1.0992,-1.0993,0,-1.1093,-1.1094,-1.1095,-1.1079,-1.1077,-1.1075,-1.1074,-1.1178,-1.1182,-1.1187,0,0,0,0,0,0,0,0,0,0,0,0,0,-1.0786,-1.079,-1.0992,-1.0993,-1.0995,-1.1093,-1.1094,-1.1095,-1.1079,-1.1077,-1.1075,-1.1073,-1.1177,-1.1182,-1.1187,0,0,0,0,0,0,0,0,0,0,0,0,0,-1.088,-1.0791,-1.0992,-1.0998,-1.1,-1.1092,-1.1094,-1.1096,-1.1079,-1.1077,-1.1074,-1.1072,-1.1175,-1.1181,-1.1188,-1.1281,0,0,-1.1208,-1.1211,0,0,0,0,0,0,0,0,-1.0875,-1.0888,-1.0996,-1.0998,-1.1,-1.1071,-1.106,-1.1158,-1.108,-1.1049,-1.1074,-1.1071,-1.1144,-1.1153,-1.1178,-1.1286,-1.129,-1.1208,-1.1212,-1.1215,-1.1217,0,0,0,0,0,0,0,-1.0868,-1.0883,-1.1032,-1.0998,-1.1,-1.0996,-1.1007,-1.1078,-1.111,-1.1052,-1.1051,-1.1063,-1.1145,-1.1172,-1.118,-1.1292,-1.1208,-1.1214,-1.1218,-1.1221,-1.148,-1.1483,0,0,0,0,0,0,-1.086,-1.0878,-1.1029,-1.1035,-1.093,-1.1002,-1.1014,-1.1051,-1.1109,-1.1116,-1.1065,-1.1062,-1.1162,-1.1173,-1.1184,-1.1297,-1.1215,-1.1221,-1.1225,-1.1477,-1.1481,-1.1484,0,0,0,0,0,0,-1.0855,-1.0873,-1.1025,-1.0956,-1.0975,-1.1008,-1.105,-1.1054,-1.1081,-1.1119,-1.1125,-1.1086,-1.116,-1.1175,-1.1257,-1.13,-1.1224,-1.123,-1.1474,-1.1479,-1.1483,-1.1524,0,0,0,0,0,0,-1.085,-1.0872,-1.0908,-1.0957,-1.0979,-1.1096,-1.1053,-1.1058,-1.1092,-1.1089,-1.1141,-1.1147,-1.1159,-1.1247,-1.1263,-1.1308,-1.1236,-1.147,-1.1476,-1.1481,-1.1519,-1.1529,-1.1538,0,0,0,0,0,-1.0842,-1.0916,-1.091,-1.0928,-1.1024,-1.1098,-1.1111,-1.1123,-1.1095,-1.1132,-1.1157,-1.1146,-1.1293,-1.1255,-1.1274,-1.1321,-1.1468,-1.1474,-1.1481,-1.1514,-1.1527,-1.1537,0,0,0,0,0,0,-1.0871,-1.0922,-1.0916,-1.1008,-1.1049,-1.1095,-1.1142,-1.1136,-1.1186,-1.1181,-1.1193,-1.1205,-1.1289,-1.1313,-1.1271,-1.1414,-1.1376,-1.1387,-1.1395,-1.1408,-1.1417,-1.141,-1.1241,0,0,0,0,0,-1.0888,-1.0943,-1.0985,-1.1062,-1.1083,-1.1109,-1.1141,-1.1147,-1.119,-1.1208,-1.1238,-1.1281,-1.1337,-1.1373,-1.1427,-1.1521,-1.1533,-1.1563,-1.1572,-1.158,-1.159,-1.1641,-1.1655,-1.1506,-1.1506,-1.1506,0,0,-1.0924,-1.0958,-1.0993,-1.1068,-1.1101,-1.1159,-1.1123,-1.1186,-1.1229,-1.1217,-1.1297,-1.1321,-1.1369,-1.1458,-1.1498,-1.148,-1.1633,-1.1589,-1.1594,-1.16,-1.1649,-1.1664,-1.1676,-1.151,-1.151,-1.1509,0,0,-1.1018,-1.105,-1.1117,-1.115,-1.1199,-1.1216,-1.1232,-1.128,-1.1295,-1.1375,-1.1367,-1.1418,-1.1514,-1.1549,-1.1579,-1.1685,-1.1677,-1.1702,-1.1753,-1.1803,-1.1815,-1.1825,-1.1864,-1.1877,-1.1711,-1.1711,-1.1711,0,-1.1056,-1.1143,-1.1152,-1.1216,-1.1249,-1.124,-1.1309,-1.134,-1.1405,-1.1428,-1.1407,-1.1527,-1.1559,-1.1655,-1.1681,-1.1706,-1.1725,-1.1697,-1.1812,-1.1823,-1.1833,-1.187,-1.1884,-1.1714,-1.1714,-1.1714,-1.1713,0,-1.1187,-1.1247,-1.1296,-1.1358,-1.1396,-1.1462,-1.1482,-1.152,-1.1522,-1.154,-1.1621,-1.1659,-1.172,-1.1743,-1.1745,-1.184,-1.1827,-1.1809,-1.1772,-1.185,-1.1885,-1.1899,-1.1718,-1.1717,-1.1716,-1.1716,0,0,-1.1304,-1.137,-1.1388,-1.1416,-1.1469,-1.1516,-1.158,-1.1639,-1.1672,-1.1716,-1.1771,-1.1852,-1.1835,-1.1869,-1.1875,-1.1919,-1.2001,-1.1896,-1.1897,-1.1915,-1.2108,-1.2122,-1.2138,-1.1996,-1.1998,-1.2001,-1.2104,0,-1.1405,-1.1519,-1.1529,-1.1632,-1.1688,-1.1679,-1.1736,-1.1774,-1.1793,-1.1843,-1.1864,-1.1921,-1.1894,-1.1915,-1.1958,-1.1982,-1.2041,-1.1975,-1.2048,-1.205,-1.2037,-1.2156,-1.2172,-1.2268,-1.2118,-1.212,-1.2122,0,-1.1537,-1.1585,-1.1693,-1.1738,-1.1762,-1.1812,-1.1867,-1.1915,-1.1958,-1.1969,-1.2007,-1.2006,-1.2073,-1.2032,-1.2124,-1.2079,-1.2109,-1.2125,-1.2129,-1.2138,-1.2091,-1.2169,-1.2299,-1.2314,-1.2143,-1.2142,-1.214,0,-1.1612,-1.1704,-1.178,-1.1804,-1.1858,-1.1894,-1.1918,-1.1959,-1.1994,-1.2042,-1.2064,-1.2119,-1.2149,-1.2192,-1.2206,-1.2175,-1.2298,-1.2258,-1.2309,-1.2309,-1.2336,-1.2335,-1.2474,-1.2354,-1.2354,-1.2354,-1.2353,0,-1.1724,-1.1791,-1.1815,-1.1862,-1.1936,-1.1947,-1.202,-1.2043,-1.2079,-1.213,-1.2126,-1.2175,-1.219,-1.2241,-1.2253,-1.2328,-1.2341,-1.2352,-1.2355,-1.2353,-1.2352,-1.2374,-1.2368,-1.2357,-1.2357,-1.2356,-1.2355,0,-1.1821,-1.184,-1.1923,-1.1967,-1.1979,-1.2032,-1.207,-1.2116,-1.2133,-1.2198,-1.2214,-1.2242,-1.2302,-1.232,-1.2392,-1.24,-1.2487,-1.2483,-1.2473,-1.2473,-1.2523,-1.2519,-1.2683,-1.2705,-1.257,-1.2571,-1.2572,0,-1.1892,-1.1943,-1.1992,-1.2026,-1.2051,-1.2106,-1.2141,-1.2153,-1.219,-1.2243,-1.2282,-1.2341,-1.2389,-1.2485,-1.2511,-1.2566,-1.2564,-1.2618,-1.2573,-1.2569,-1.2566,-1.2563,-1.2568,-1.2627,-1.2628,-1.2629,-1.263,0,-1.2015,-1.2021,-1.2072,-1.2126,-1.2167,-1.221,-1.2252,-1.228,-1.2298,-1.2339,-1.24,-1.2437,-1.251,-1.2569,-1.2624,-1.2649,-1.2643,-1.2644,-1.2659,-1.2659,-1.265,-1.2656,-1.2497,-1.2641,-1.264,-1.2639,-1.2638,-1.2638,-1.2101,-1.2146,-1.2188,-1.2244,-1.2276,-1.2315,-1.236,-1.2382,-1.2433,-1.2493,-1.2497,-1.2563,-1.2605,-1.2679,-1.2706,-1.2758,-1.2743,-1.2764,-1.277,-1.2775,-1.2779,-1.2641,-1.2768,-1.2768,-1.2768,-1.2767,-1.2767,0,-1.2225,-1.2251,-1.2302,-1.236,-1.2404,-1.2393,-1.2438,-1.2476,-1.2534,-1.2573,-1.262,-1.269,-1.2746,-1.2777,-1.2833,-1.2869,-1.2867,-1.2883,-1.2881,-1.2887,-1.279,-1.2771,-1.2883,-1.2883,-1.2883,-1.2883,-1.2883,-1.2883,-1.2295,-1.237,-1.2381,-1.2472,-1.2498,-1.2562,-1.2589,-1.2624,-1.2655,-1.2733,-1.278,-1.2799,-1.2835,-1.2893,-1.2945,-1.2952,-1.2973,-1.2991,-1.2997,-1.2906,-1.2894,-1.2883,-1.2866,-1.2996,-1.2996,-1.3091,-1.3091,-1.3092]},{"header":{"parameterUnit":"m.s-1","parameterCategory":1,"la1":30.2991,"la2":30.254,"lo1":-89.0895,"lo2":-89.0444,"dy":0.0017,"dx":0.0017,"nx":28,"ny":28,"refTime":"2023-10-12T09:00:00:Z","depth":0,"parameterNumber":3,"parameterNumberName":"V-component_of_WINDS"},"data":[0,0,0,0,0,0,0,0,0,0,0,0,0,0,0,0,0,0,0,0,0,0,0,0,0,0,0,0,0,0,0,0,0,0,0,0,0,0,0,0,0,0,0,0,0,0,0,0,0,0,0,0,0,0,0,0,0,0,-3.5064,-3.5065,0,-3.5108,-3.5109,-3.5109,-3.5067,-3.5065,-3.5063,-3.5062,-3.5104,-3.5107,-3.5109,0,0,0,0,0,0,0,0,0,0,0,0,0,-3.4938,-3.4941,-3.5064,-3.5065,-3.5065,-3.5108,-3.5109,-3.511,-3.5067,-3.5065,-3.5063,-3.5061,-3.5103,-3.5106,-3.511,0,0,0,0,0,0,0,0,0,0,0,0,0,-3.4989,-3.4942,-3.5064,-3.5049,-3.5048,-3.5108,-3.5109,-3.511,-3.5067,-3.5065,-3.5062,-3.506,-3.5102,-3.5106,-3.511,-3.5186,0,0,-3.5122,-3.5124,0,0,0,0,0,0,0,0,-3.4986,-3.4993,-3.5051,-3.505,-3.5049,-3.5079,-3.508,-3.5135,-3.5068,-3.506,-3.5062,-3.5059,-3.5098,-3.5102,-3.5116,-3.5188,-3.519,-3.5123,-3.5125,-3.5127,-3.5128,0,0,0,0,0,0,0,-3.4983,-3.4991,-3.5081,-3.5052,-3.5051,-3.5039,-3.5043,-3.509,-3.5092,-3.5061,-3.5058,-3.5064,-3.5097,-3.5112,-3.5116,-3.519,-3.5123,-3.5126,-3.5129,-3.513,-3.5325,-3.5327,0,0,0,0,0,0,-3.4981,-3.4989,-3.508,-3.5083,-3.5011,-3.5043,-3.5048,-3.5072,-3.5092,-3.5092,-3.5066,-3.5061,-3.5106,-3.5112,-3.5118,-3.5207,-3.5127,-3.5131,-3.5133,-3.5322,-3.5325,-3.5328,0,0,0,0,0,0,-3.4979,-3.499,-3.5078,-3.5035,-3.5045,-3.5048,-3.5076,-3.5075,-3.509,-3.5096,-3.5096,-3.5081,-3.5104,-3.5112,-3.5169,-3.5208,-3.5133,-3.5136,-3.5319,-3.5323,-3.5327,-3.5386,0,0,0,0,0,0,-3.4975,-3.4989,-3.5019,-3.5036,-3.5048,-3.513,-3.5078,-3.5077,-3.5097,-3.5092,-3.511,-3.5111,-3.5103,-3.5163,-3.5173,-3.5212,-3.5139,-3.5315,-3.5321,-3.5326,-3.5381,-3.5392,-3.5401,0,0,0,0,0,-3.4971,-3.5034,-3.5021,-3.5032,-3.5086,-3.5133,-3.5139,-3.513,-3.51,-3.513,-3.5133,-3.511,-3.5202,-3.5169,-3.518,-3.5221,-3.5313,-3.5319,-3.5325,-3.5376,-3.5389,-3.5401,0,0,0,0,0,0,-3.502,-3.5036,-3.5022,-3.5092,-3.5111,-3.5125,-3.5162,-3.5145,-3.5172,-3.5166,-3.5153,-3.5157,-3.5217,-3.5225,-3.5188,-3.5294,-3.5252,-3.5261,-3.5287,-3.53,-3.531,-3.5307,-3.5143,0,0,0,0,0,-3.504,-3.5078,-3.5089,-3.5149,-3.516,-3.516,-3.518,-3.5171,-3.519,-3.5198,-3.5206,-3.5224,-3.5257,-3.5279,-3.531,-3.5381,-3.5384,-3.5414,-3.5425,-3.5433,-3.544,-3.5477,-3.5491,-3.5349,-3.5348,-3.5348,0,0,-3.5079,-3.5092,-3.5117,-3.516,-3.5174,-3.5212,-3.5167,-3.521,-3.5238,-3.5204,-3.5258,-3.5265,-3.5284,-3.5349,-3.5378,-3.5357,-3.548,-3.5441,-3.5447,-3.545,-3.5485,-3.5498,-3.551,-3.5353,-3.5352,-3.5351,0,0,-3.5171,-3.5186,-3.5238,-3.5253,-3.5275,-3.5274,-3.5286,-3.5303,-3.5306,-3.536,-3.5336,-3.5368,-3.5425,-3.544,-3.5455,-3.5551,-3.553,-3.5561,-3.5615,-3.5651,-3.5662,-3.5672,-3.5705,-3.5717,-3.5569,-3.5569,-3.5569,0,-3.5218,-3.5276,-3.5266,-3.5311,-3.5329,-3.5301,-3.5353,-3.5367,-3.5398,-3.5411,-3.5387,-3.5458,-3.5469,-3.5536,-3.5559,-3.5573,-3.5585,-3.5559,-3.5661,-3.5671,-3.568,-3.5712,-3.5724,-3.5573,-3.5572,-3.5572,-3.5571,0,-3.5331,-3.5372,-3.5411,-3.5442,-3.5465,-3.5513,-3.5508,-3.5533,-3.5522,-3.5523,-3.5577,-3.559,-3.5622,-3.5637,-3.5627,-3.5702,-3.5689,-3.5664,-3.5621,-3.5697,-3.5727,-3.5739,-3.5578,-3.5576,-3.5575,-3.5574,0,0,-3.5456,-3.5481,-3.5495,-3.5508,-3.553,-3.556,-3.5606,-3.5638,-3.5659,-3.568,-3.5717,-3.5766,-3.5743,-3.576,-3.575,-3.5782,-3.5856,-3.5753,-3.5753,-3.5771,-3.5939,-3.5957,-3.5971,-3.5843,-3.5845,-3.5847,-3.5937,0,-3.5548,-3.5629,-3.5621,-3.5697,-3.5733,-3.5707,-3.5746,-3.5763,-3.5765,-3.5795,-3.5796,-3.5831,-3.5798,-3.5808,-3.5838,-3.5841,-3.589,-3.5834,-3.5875,-3.5877,-3.5871,-3.5987,-3.6006,-3.6091,-3.5948,-3.595,-3.5951,0,-3.5667,-3.5693,-3.5773,-3.5788,-3.5803,-3.5839,-3.5867,-3.5897,-3.5915,-3.5914,-3.5932,-3.5917,-3.5961,-3.5918,-3.5978,-3.5941,-3.5957,-3.596,-3.5963,-3.5967,-3.5919,-3.5992,-3.6118,-3.613,-3.597,-3.5968,-3.5967,0,-3.5749,-3.5804,-3.5859,-3.5871,-3.589,-3.5916,-3.5925,-3.594,-3.596,-3.5984,-3.5996,-3.6025,-3.604,-3.6062,-3.6054,-3.6024,-3.6115,-3.6072,-3.6115,-3.6115,-3.6135,-3.6134,-3.6264,-3.6147,-3.6146,-3.6146,-3.6146,0,-3.5852,-3.5902,-3.5896,-3.5929,-3.5984,-3.5973,-3.6026,-3.6032,-3.6046,-3.6079,-3.6057,-3.6088,-3.6077,-3.6107,-3.6101,-3.615,-3.6158,-3.6157,-3.6155,-3.6159,-3.6159,-3.6169,-3.6163,-3.6149,-3.6149,-3.6148,-3.6147,0,-3.5953,-3.5951,-3.6009,-3.6022,-3.6026,-3.6066,-3.6076,-3.6107,-3.6107,-3.6149,-3.6158,-3.6158,-3.6192,-3.6187,-3.6224,-3.622,-3.6282,-3.6273,-3.6277,-3.6274,-3.6317,-3.6313,-3.6458,-3.6476,-3.6347,-3.6349,-3.635,0,-3.6018,-3.6056,-3.6074,-3.6095,-3.6106,-3.614,-3.6159,-3.615,-3.6171,-3.6193,-3.6221,-3.6254,-3.6279,-3.6334,-3.6337,-3.6365,-3.6356,-3.6405,-3.636,-3.6362,-3.6355,-3.6353,-3.6356,-3.6413,-3.6415,-3.6416,-3.6417,0,-3.6135,-3.6132,-3.6162,-3.6192,-3.6216,-3.6238,-3.6259,-3.6277,-3.6268,-3.6293,-3.6328,-3.6348,-3.6386,-3.6418,-3.6445,-3.6452,-3.6433,-3.6431,-3.6442,-3.6447,-3.6447,-3.6446,-3.63,-3.6428,-3.6427,-3.6426,-3.6425,-3.6425,-3.622,-3.6251,-3.6269,-3.6302,-3.6316,-3.6336,-3.6365,-3.6369,-3.6398,-3.6429,-3.6421,-3.6461,-3.6476,-3.6509,-3.652,-3.6549,-3.6531,-3.6548,-3.6552,-3.6556,-3.656,-3.6443,-3.6554,-3.6554,-3.6554,-3.6553,-3.6553,0,-3.6334,-3.6344,-3.6375,-3.6404,-3.643,-3.6411,-3.6432,-3.6454,-3.649,-3.6506,-3.6531,-3.6571,-3.6601,-3.6606,-3.6635,-3.6657,-3.6649,-3.6665,-3.6663,-3.6665,-3.6576,-3.6563,-3.6671,-3.6671,-3.6671,-3.6671,-3.6671,-3.6671,-3.6397,-3.6449,-3.6448,-3.6507,-3.6516,-3.6555,-3.6568,-3.6585,-3.6598,-3.6644,-3.6669,-3.6672,-3.6683,-3.6712,-3.6739,-3.6739,-3.675,-3.677,-3.6767,-3.6683,-3.6671,-3.666,-3.6648,-3.6772,-3.6773,-3.6853,-3.6854,-3.6855]}]]